Content
SEND FEEDBACK

Daily
Averages
Monthly
Summary
Philippines

QUEZON CITY, PHILIPPINES


Home > Asia > Philippines
Elevation: 46 meters     Latitude: 14 39N     Longitude: 121 03E

WEATHER
 
SELECT A DAY
Number of Records: 178,918;   Date Range: 7/1/96 - 12/19/14
 
SHARE

PRINT THIS DATA

[ ← Previous Day ]
WEATHER ALMANAC - 12 MARCH, 2013
[ Next Day → ]
[ °F ]   °C
Weather ElementAverageHighLow
Temperature27.7 °C33.3 °C (2:00 pm) (1:00 pm)
Dewpoint22.3 °C23 °C (2:00 am)20 °C (3:00 pm)
Humidity65.3 %83 % (4:00 am)39 % (2:00 pm)
Barometer1011.5 hPa1013.5 hPa (11:00 am)1009.1 hPa (3:00 pm)
Wind Speed12.7 km/h20.4 km/h (12:00 pm)
Weather ElementAverage
Visibility9.8 km
Wind DirectionESE (111.3 °)

Weather ElementTotal
Precipitation---
Heating Degree Days10.6 (Base 18.3)
Averaged from 31 records on 12 March, 2013
WEATHER CONDITIONS BREAKOUT
WIND DIRECTION BREAKOUT
WEATHER BY HOUR - 12 MARCH, 2013
[ °F ]   °C
Local TimeTemperatureDewpointHumidityBarometerVisibilityWind DirectionWind SpeedGust SpeedPrecipitationEventsConditions
1:00 AM27 °C22 °C74 %1012.2 hPa10 kmESE (120°)7.4 km/hPartly Cloudy
2:00 AM26.7 °C22.2 °C71 %1011.9 hPa9.7 kmEast (90°)7.2 km/hHaze
2:00 AM27 °C23 °C79 %1011.2 hPa10 kmEast (90°)7.4 km/hPartly Cloudy
3:00 AM26 °C22 °C78 %1011.2 hPaENE (60°)7.4 km/hPartly Cloudy
4:00 AM25 °C22 °C83 %1011.2 hPaENE (70°)5.6 km/hPartly Cloudy
5:00 AM26.7 °C22.8 °C75 %1011.2 hPa9.7 kmNNE (30°)7.2 km/hPartly Cloudy
5:00 AM26 °C23 °C83 %1012.2 hPa10 kmEast (100°)5.6 km/hPartly Cloudy
6:00 AM26 °C23 °C83 %1012.2 hPa10 kmVariable3.7 km/hPartly Cloudy
7:00 AM27 °C23 °C79 %1012.2 hPa10 kmESE (110°)5.6 km/hPartly Cloudy
8:00 AM27.8 °C22.8 °C68 %1013.2 hPa9.7 kmSE (130°)10.8 km/hHaze
8:00 AM29 °C23 °C70 %1013.2 hPa10 kmSE (130°)13 km/hPartly Cloudy
9:00 AM30 °C23 °C66 %1013.2 hPa10 kmESE (110°)14.8 km/hPartly Cloudy
10:00 AM31 °C23 °C62 %1013.2 hPa10 kmSE (130°)14.8 km/hPartly Cloudy
11:00 AM31.1 °C22.8 °C54 %1013.5 hPa9.7 kmSE (130°)14.3 km/hPartly Cloudy
11:00 AM31 °C23 °C62 %1013.2 hPa10 kmSE (130°)16.7 km/hPartly Cloudy
12:00 PM32 °C23 °C59 %1012.2 hPa10 kmSE (130°)20.4 km/hPartly Cloudy
1:00 PM-17.8 °C22 °C1011.2 hPa10 kmSE (130°)18.5 km/hPartly Cloudy
2:00 PM33.3 °C21.1 °C39 %1010.8 hPa9.7 kmSE (130°)14.3 km/hScattered Clouds
2:00 PM33 °C21 °C49 %1010.2 hPa10 kmSE (130°)16.7 km/hPartly Cloudy
3:00 PM33 °C20 °C46 %1009.1 hPa10 kmESE (120°)20.4 km/hPartly Cloudy
4:00 PM33 °C21 °C49 %1009.1 hPa10 kmSE (130°)20.4 km/hPartly Cloudy
5:00 PM31.7 °C20.6 °C42 %1009.8 hPa9.7 kmSE (130°)18 km/hScattered Clouds
5:00 PM32 °C20 °C49 %1009.1 hPa10 kmSE (130°)18.5 km/hPartly Cloudy
6:00 PM31 °C22 °C58 %1010.2 hPa10 kmESE (120°)16.7 km/hPartly Cloudy
7:00 PM30 °C22 °C62 %1010.2 hPa10 kmESE (120°)13 km/hPartly Cloudy
8:00 PM28.9 °C22.8 °C62 %1011.9 hPa9.7 kmESE (120°)14.3 km/hScattered Clouds
8:00 PM29 °C23 °C70 %1011.2 hPa10 kmESE (120°)14.8 km/hPartly Cloudy
9:00 PM28 °C22 °C70 %1012.2 hPa10 kmSE (130°)13 km/hPartly Cloudy
10:00 PM28 °C23 °C74 %1013.2 hPa10 kmESE (120°)13 km/hPartly Cloudy
11:00 PM27.8 °C22.8 °C68 %1013.5 hPa9.7 kmSE (130°)10.8 km/hScattered Clouds
11:00 PM28 °C23 °C74 %1013.2 hPa10 kmSE (130°)11.1 km/hPartly Cloudy
Hourly data recorded from RPLL, located 0 kilometers away from Quezon City, Philippines







STORIES FROM OUR PARTNERS